Regional Weather Roundup
Issued by NWS

Home | Current Version | Previous Version | Graphics & Text | Print | Product List | Glossary On
Versions: 1 2 3 4 5 6 7 8 9 10 11 12 13 14 15 16 17 18 19 20 21 22 23 24 25 26 27 28 29 30 31 32 33 34 35 36 37 38 39 40 41 42 43 44 45 46 47 48 49 50
000
ASUS43 KFSD 271110
RWRSD

WEATHER ROUNDUP FOR SOUTH DAKOTA
NATIONAL WEATHER SERVICE SIOUX FALLS SD
500 AM CST SAT DEC 27 2014

NOTE: "FAIR" INDICATES FEW OR NO CLOUDS BELOW 12,000 FEET WITH NO
SIGNIFICANT WEATHER AND/OR OBSTRUCTIONS TO VISIBILITY.


SDZ001>005-009-010-012>017-271200-
NORTHWEST AND NORTH CENTRAL SOUTH DAKOTA

CITY           SKY/WX    TMP DP  RH WIND       PRES   REMARKS
BUFFALO          N/A     23  18  81 W18       30.01S WCI   9
FAITH            N/A     15  10  80 SW8       30.10F WCI   4
MOBRIDGE       FOG        1  -2  87 SE5       30.11F VSB 1/4 WCI  -9
$$

SDZ012>016-024>037-041>051-057-063-072>074-271200-
SOUTHWEST AND SOUTH CENTRAL SOUTH DAKOTA

CITY           SKY/WX    TMP DP  RH WIND       PRES   REMARKS
RAPID CTY ARPT CLOUDY    12   7  80 CALM      30.10F
PIERRE         MOCLDY     5   3  91 W5        30.16F WCI  -4
CUSTER         CLOUDY    13   3  64 CALM      29.98S
PHILIP         PTCLDY     6   2  83 W8        30.16F WCI  -7
PINE RIDGE     PTCLDY     8   5  87 W5        30.12F WCI   0
SPEARFISH      FAIR      16   9  73 W10       30.07S WCI   3
WINNER         FAIR      13   8  81 W8        30.16S WCI   2
$$

SDZ004>011-016>023-039-040-271200-
NORTHEAST SOUTH DAKOTA

CITY           SKY/WX    TMP DP  RH WIND       PRES   REMARKS
ABERDEEN       CLEAR      5   1  83 W5        30.19F WCI  -4
WATERTOWN      MOCLDY    11   7  84 NW10      30.12S WCI  -3
SISSETON         N/A      8   4  83 NW8       30.16F WCI  -4
$$

SDZ017-020-022-023-036>040-048>070-271200-
SOUTHEAST SOUTH DAKOTA

CITY           SKY/WX    TMP DP  RH WIND       PRES   REMARKS
SIOUX FALLS    LGT SNOW  19  15  84 NW16      30.12S FOG     WCI   4
HURON          MOCLDY     7   3  84 NW9       30.19S WCI  -7
CHAMBERLAIN    MOCLDY    10   8  90 W3        30.17S
MITCHELL       CLOUDY    14  10  84 NW12      30.19S WCI   0
YANKTON        MOCLDY    18  12  79 NW16      30.17S WCI   3
$$

ABBREVIATIONS USED IN REMARKS
   TC - TEMPERATURE IN CELSIUS
  WCI - WIND CHILL INDEX
   HX - HEAT INDEX
  VSB - VISIBILITY



USA.gov is the U.S. government's official web portal to all federal, state and local government web resources and services.